Location: Hamburg
(53.5500°N, 10.0000°E)
Time: 17:12:51
(UTC+01:00)

ISS - Visible Passes

Search period start: 22 January 2017 00:00
Search period end: 01 February 2017 00:00
Orbit: 399 x 410 km, 51.6° (Epoch: 23 January)

Date Brightness Start Highest point End Pass type
(mag) Time Alt. Az. Time Alt. Az. Time Alt. Az.
30 Jan -1.1 19:17:22 10° SSW 19:18:39 17° S 19:18:39 17° S visible
31 Jan -1.3 18:25:53 10° S 18:27:50 15° SE 18:28:39 14° SE visible
31 Jan -0.5 20:00:37 10° SW 20:01:19 15° SW 20:01:19 15° SW visible
